Date Time,Air Temp,Sky Temp,Clarity,Light Level,Rain Sensor,Readings
2011-11-10 00:01:25,19.8,8.3,11.5,0.6,2.7,111
2011-11-10 00:06:25,19.8,7.1,12.7,0.7,2.7,111
2011-11-10 00:11:25,19.7,7.6,12.2,0.6,2.6,112
2011-11-10 00:16:25,19.7,8.0,11.7,0.6,2.6,111
2011-11-10 00:21:25,19.7,7.5,12.3,0.7,2.6,112
2011-11-10 00:26:25,19.7,8.1,11.6,0.7,2.7,111
2011-11-10 00:31:25,19.8,8.0,11.8,0.7,2.7,111
2011-11-10 00:36:25,19.8,8.4,11.3,0.6,2.7,111
2011-11-10 00:41:25,19.8,8.1,11.6,0.6,2.7,112
2011-11-10 00:46:25,19.8,8.9,10.9,0.5,2.7,111
2011-11-10 00:51:25,19.5,7.6,11.9,0.6,2.7,112
2011-11-10 00:56:25,19.8,8.3,11.5,0.6,2.7,111
2011-11-10 01:01:25,19.8,8.8,11.0,0.6,2.7,111
2011-11-10 01:06:25,19.9,8.5,11.4,0.6,2.7,112
2011-11-10 01:11:25,19.9,9.1,10.7,0.5,2.7,111
2011-11-10 01:16:25,19.9,8.3,11.6,0.6,2.7,111
2011-11-10 01:21:25,19.9,8.0,11.8,0.6,2.7,111
2011-11-10 01:26:25,19.9,7.9,12.1,0.7,2.6,112
2011-11-10 01:31:25,19.8,6.8,13.0,0.9,2.7,112
2011-11-10 01:36:25,19.8,6.1,13.6,0.7,2.7,111
2011-11-10 01:41:25,19.7,6.8,13.0,0.7,2.6,111
2011-11-10 01:46:25,19.7,6.9,12.8,0.7,2.6,112
2011-11-10 01:51:25,19.7,8.3,11.4,0.6,2.5,111
2011-11-10 01:56:25,19.7,9.3,10.4,0.4,2.6,112
2011-11-10 02:01:25,19.8,9.4,10.4,0.3,2.6,111
2011-11-10 02:06:25,19.8,9.5,10.3,0.2,2.6,112
2011-11-10 02:11:25,19.9,9.6,10.3,0.3,2.7,111
2011-11-10 02:16:25,19.9,9.3,10.6,0.3,2.7,112
2011-11-10 02:21:25,19.9,8.2,11.7,0.4,2.6,112
2011-11-10 02:26:26,19.9,8.0,11.9,0.4,2.7,111
2011-11-10 02:31:26,19.8,8.1,11.7,0.4,2.7,112
2011-11-10 02:36:26,19.8,7.8,12.1,0.4,2.9,111
2011-11-10 02:41:26,19.7,3.3,16.4,0.8,2.6,111
2011-11-10 02:46:26,19.6,3.2,16.4,1.3,2.5,112
2011-11-10 02:51:26,19.6,4.3,15.2,0.9,2.4,111
2011-11-10 02:56:26,19.5,2.5,16.9,0.7,2.3,111
2011-11-10 03:01:26,19.4,3.5,15.9,0.7,2.3,112
2011-11-10 03:06:26,19.4,6.6,12.8,0.4,2.3,111
2011-11-10 03:11:26,19.5,8.8,10.7,0.3,2.3,112
2011-11-10 03:16:26,19.6,5.5,14.1,0.4,2.3,111
2011-11-10 03:21:26,19.5,3.4,16.1,0.4,2.3,111
2011-11-10 03:26:26,19.4,4.1,15.4,0.5,2.3,112
2011-11-10 03:31:26,19.6,1.1,18.4,0.4,2.3,111
2011-11-10 03:36:26,22.4,-3.5,25.9,1.0,2.3,112
2011-11-10 03:41:26,23.5,-3.6,27.2,1.1,2.3,111
2011-11-10 03:46:26,23.4,-3.0,26.5,1.0,2.3,112
2011-11-10 03:51:26,24.0,-3.3,27.2,0.9,2.3,112
2011-11-10 03:56:26,24.0,-3.3,27.3,0.9,2.3,112
2011-11-10 04:01:26,24.1,-2.5,26.6,0.9,2.3,112
2011-11-10 04:06:26,24.1,-0.9,25.1,0.8,2.3,111
2011-11-10 04:11:26,24.2,2.0,22.2,0.8,2.4,112
2011-11-10 04:16:26,24.3,1.9,22.4,0.6,2.3,110
2011-11-10 04:21:26,24.3,1.6,22.7,0.5,2.3,112
2011-11-10 04:26:26,24.3,0.7,23.7,0.7,2.3,111
2011-11-10 04:31:26,24.3,0.2,24.1,0.7,2.3,112
2011-11-10 04:36:26,24.2,0.4,23.9,0.6,2.3,111
2011-11-10 04:41:26,24.0,1.3,22.7,0.6,2.3,111
2011-11-10 04:46:26,24.0,2.9,21.0,0.6,2.3,111
2011-11-10 04:51:26,24.3,1.7,22.6,0.5,2.3,111
2011-11-10 04:56:26,24.4,0.8,23.6,0.5,2.3,111
2011-11-10 05:01:26,24.3,0.8,23.6,0.4,2.3,111
2011-11-10 05:06:26,24.0,3.1,20.9,0.4,2.3,112
2011-11-10 05:11:26,21.3,6.5,14.8,0.3,2.3,111
2011-11-10 05:16:26,20.1,6.1,14.0,0.2,2.3,112
2011-11-10 05:21:26,19.7,3.9,15.8,0.3,2.6,111
2011-11-10 05:26:26,19.5,4.9,14.7,0.3,2.5,112
2011-11-10 05:31:26,19.4,3.1,16.3,0.3,2.4,111
2011-11-10 05:36:26,19.3,0.6,18.7,0.3,2.3,112
2011-11-10 05:41:26,19.1,0.4,18.7,0.2,2.3,111
2011-11-10 05:46:26,18.9,1.9,17.0,0.2,2.2,112
2011-11-10 05:51:26,18.9,4.0,14.9,0.2,2.1,111
2011-11-10 05:56:26,18.9,8.2,10.7,0.2,2.1,112
2011-11-10 06:01:26,19.0,9.2,9.8,0.1,2.2,111
2011-11-10 06:06:26,19.1,8.6,10.5,0.2,2.3,112
2011-11-10 06:11:26,19.1,8.2,10.9,0.2,2.2,111
2011-11-10 06:16:26,19.1,9.4,9.7,0.2,2.2,111
2011-11-10 06:21:26,18.8,9.1,9.6,0.5,2.2,112
2011-11-10 06:26:26,19.1,9.7,9.4,0.8,2.2,111
2011-11-10 06:31:26,19.2,10.0,9.2,1.7,2.3,112
2011-11-10 06:36:26,19.4,9.2,10.2,3.4,2.3,112
2011-11-10 06:41:26,19.4,8.3,11.2,6.9,2.3,111
2011-11-10 06:46:26,19.4,7.1,12.3,11.6,2.3,111
2011-11-10 06:51:26,19.5,10.5,9.0,14.2,2.3,112
2011-11-10 06:56:26,19.5,10.6,8.9,18.2,2.3,112
2011-11-10 07:01:26,19.3,10.6,8.6,22.1,2.3,111
2011-11-10 07:06:26,19.7,10.0,9.7,26.4,2.4,111
2011-11-10 07:11:26,19.6,7.3,12.4,29.4,2.3,111
2011-11-10 07:16:26,19.5,9.3,10.2,29.8,2.3,112
2011-11-10 07:21:26,19.6,9.8,9.8,30.3,2.3,111
2011-11-10 07:26:26,19.6,9.8,9.9,30.8,2.4,112
2011-11-10 07:31:26,19.7,9.5,10.1,31.1,2.4,111
2011-11-10 07:36:26,19.7,8.9,10.8,31.4,2.5,112
2011-11-10 07:41:26,19.7,8.6,11.1,31.6,2.6,111
2011-11-10 07:46:26,19.6,7.4,12.3,31.8,2.5,112
2011-11-10 07:51:26,19.6,8.7,10.8,31.9,2.4,111
2011-11-10 07:56:26,19.6,5.6,14.0,32.0,2.4,112
2011-11-10 08:01:26,19.5,7.0,12.5,32.0,2.4,111
2011-11-10 08:06:26,19.5,6.5,13.1,32.0,2.4,112
2011-11-10 08:11:26,19.5,6.8,12.7,32.1,2.3,111
2011-11-10 08:16:26,19.5,6.1,13.5,32.2,2.3,111
2011-11-10 08:21:26,19.7,1.0,18.7,32.3,2.5,112
2011-11-10 08:26:26,22.1,1.0,21.1,32.3,2.3,111
2011-11-10 08:31:26,21.2,2.9,18.3,32.3,2.3,112
2011-11-10 08:36:26,22.2,5.3,16.8,32.3,2.3,112
2011-11-10 08:41:26,20.7,10.1,10.5,32.2,2.3,111
2011-11-10 08:46:26,20.3,10.2,10.1,32.2,2.3,112
2011-11-10 08:51:26,20.2,9.0,11.2,32.3,2.3,111
2011-11-10 08:56:26,20.2,5.7,14.4,32.3,2.3,112
2011-11-10 09:01:26,20.5,3.4,17.1,32.3,2.3,111
2011-11-10 09:06:26,20.3,8.7,11.6,32.3,2.3,112
2011-11-10 09:11:26,20.1,9.0,11.1,32.4,2.3,111
2011-11-10 09:16:26,20.0,9.7,10.3,32.4,2.5,112
2011-11-10 09:21:26,19.9,9.6,10.4,32.4,2.7,111
2011-11-10 09:26:26,19.9,10.0,9.9,32.4,2.7,112
2011-11-10 09:31:26,20.0,10.1,9.9,32.4,2.6,111
2011-11-10 09:36:26,20.1,9.8,10.3,32.4,2.3,112
2011-11-10 09:41:26,20.2,9.9,10.3,32.4,2.3,111
2011-11-10 09:46:26,20.3,9.9,10.4,32.4,2.3,112
2011-11-10 09:51:26,20.4,10.2,10.2,32.4,2.3,111
2011-11-10 09:56:26,20.6,7.3,13.3,32.4,2.3,112
2011-11-10 10:01:26,20.6,8.3,12.4,32.4,2.3,112
2011-11-10 10:06:26,20.8,5.5,15.3,32.5,2.3,111
2011-11-10 10:11:26,21.3,3.3,18.0,32.5,2.3,111
2011-11-10 10:16:26,21.4,7.2,14.2,32.5,2.3,112
2011-11-10 10:21:26,21.3,4.6,16.7,32.5,2.3,111
2011-11-10 10:26:26,21.2,3.7,17.5,32.5,2.3,111
2011-11-10 10:31:26,21.1,3.0,18.1,32.5,2.2,112
2011-11-10 10:36:26,21.3,2.3,19.0,32.5,2.2,111
2011-11-10 10:41:26,21.0,2.2,18.8,32.5,2.3,111
2011-11-10 10:46:26,20.8,4.1,16.7,32.5,2.3,112
2011-11-10 10:51:26,21.0,6.0,14.9,32.5,2.3,111
2011-11-10 10:56:26,21.3,5.2,16.0,32.5,2.3,112
2011-11-10 11:01:26,21.5,2.7,18.8,32.5,2.3,111
2011-11-10 11:06:26,21.7,2.7,19.0,32.5,2.3,111
2011-11-10 11:11:26,22.0,2.8,19.2,32.5,2.3,111
2011-11-10 11:16:26,21.8,4.3,17.5,32.5,2.3,111
2011-11-10 11:21:26,21.6,5.6,16.0,32.5,2.3,112
2011-11-10 11:26:26,21.6,6.0,15.6,32.5,2.3,111
2011-11-10 11:31:26,21.5,6.1,15.4,32.5,2.3,112
2011-11-10 11:36:26,21.5,6.0,15.5,32.5,2.3,111
2011-11-10 11:41:26,21.5,6.5,15.0,32.5,2.3,112
2011-11-10 11:46:26,21.6,7.1,14.5,32.5,2.3,111
2011-11-10 11:51:26,21.6,7.7,13.9,32.5,2.4,111
2011-11-10 11:56:26,21.4,7.5,13.9,32.5,2.3,112
2011-11-10 12:01:26,21.3,7.9,13.4,32.4,2.3,111
2011-11-10 12:06:26,21.2,8.1,13.1,32.4,2.3,111
2011-11-10 12:11:26,21.0,7.6,13.4,32.3,12.2,111
2011-11-10 12:16:26,20.6,11.1,9.5,32.3,24.1,112
2011-11-10 12:21:26,20.1,10.9,9.2,32.3,21.7,111
2011-11-10 12:26:26,19.9,12.9,6.9,32.4,15.1,112
2011-11-10 12:31:26,19.8,13.6,6.2,32.5,6.2,111
2011-11-10 12:36:26,19.8,10.7,9.1,32.5,2.7,112
2011-11-10 12:41:26,20.1,7.7,12.4,32.5,2.5,111
2011-11-10 12:46:26,20.7,7.0,13.8,32.5,2.3,111
2011-11-10 12:51:26,21.0,6.9,14.1,32.5,2.3,112
2011-11-10 12:56:26,21.0,6.6,14.4,32.5,2.3,111
2011-11-10 13:01:26,20.8,5.6,15.1,32.5,2.3,112
2011-11-10 13:06:26,20.7,5.4,15.3,32.5,2.3,111
2011-11-10 13:11:26,20.9,4.3,16.6,32.5,2.3,112
2011-11-10 13:16:26,21.0,5.1,15.9,32.5,2.3,112
2011-11-10 13:21:26,21.3,4.4,17.0,32.5,2.3,111
2011-11-10 13:26:26,21.4,3.8,17.6,32.5,2.3,112
2011-11-10 13:31:26,21.5,5.0,16.5,32.5,2.3,112
2011-11-10 13:36:26,21.7,6.3,15.4,32.5,2.4,111
2011-11-10 13:41:26,21.9,6.8,15.2,32.5,2.4,112
2011-11-10 13:46:26,22.1,5.3,16.8,32.5,2.3,112
2011-11-10 13:51:26,22.4,4.8,17.6,32.6,2.3,111
2011-11-10 13:56:26,22.6,4.8,17.8,32.6,2.2,112
2011-11-10 14:01:26,23.9,3.8,20.0,32.5,2.3,111
2011-11-10 14:06:26,26.5,5.5,21.0,32.5,2.3,112
2011-11-10 14:11:26,25.2,6.4,18.8,32.5,2.3,111
2011-11-10 14:16:26,23.5,6.7,16.8,32.5,2.3,111
2011-11-10 14:21:26,23.0,6.9,16.1,32.6,2.3,111
2011-11-10 14:26:26,23.5,9.5,14.0,32.6,2.3,112
2011-11-10 14:31:26,24.5,8.8,15.8,32.5,2.3,111
2011-11-10 14:36:26,24.1,6.6,17.5,32.5,2.3,112
2011-11-10 14:41:26,23.2,5.1,18.1,32.5,2.3,111
2011-11-10 14:46:26,22.5,4.6,17.9,32.5,2.3,112
2011-11-10 14:51:26,21.8,5.0,16.8,32.5,2.2,112
2011-11-10 14:56:26,22.4,5.7,16.6,32.6,2.2,111
2011-11-10 15:01:26,24.2,2.9,21.3,32.6,2.3,112
2011-11-10 15:06:26,27.7,0.6,27.1,32.6,2.3,111
2011-11-10 15:11:26,28.8,-0.6,29.4,32.6,2.3,111
2011-11-10 15:16:26,28.7,-0.0,28.8,32.6,2.3,112
2011-11-10 15:21:26,28.6,2.3,26.3,32.5,2.3,111
2011-11-10 15:26:26,28.1,2.0,26.1,32.5,2.3,111
2011-11-10 15:31:26,27.5,2.3,25.2,32.5,2.3,111
2011-11-10 15:36:26,27.2,0.5,26.7,32.5,2.3,111
2011-11-10 15:41:26,26.9,-3.1,30.0,32.4,2.3,112
2011-11-10 15:46:26,26.5,-4.1,30.6,32.4,2.3,112
2011-11-10 15:51:26,26.4,-3.9,30.3,32.4,2.3,112
2011-11-10 15:56:26,26.2,-4.1,30.3,32.3,2.3,112
2011-11-10 16:01:26,26.1,-4.8,30.9,32.3,2.3,111
2011-11-10 16:06:26,26.0,-5.2,31.2,32.3,2.3,111
2011-11-10 16:11:26,25.9,-5.6,31.5,32.1,2.3,112
2011-11-10 16:16:26,25.7,-6.2,31.8,31.9,2.3,111
2011-11-10 16:21:26,25.2,-6.5,31.7,31.6,2.3,112
2011-11-10 16:26:26,24.9,-6.2,31.1,31.3,2.3,112
2011-11-10 16:31:26,24.7,-6.4,31.1,30.8,2.3,112
2011-11-10 16:36:26,24.5,-6.6,31.1,29.8,2.3,111
2011-11-10 16:41:26,24.3,-6.6,30.8,27.8,2.2,112
2011-11-10 16:46:26,24.1,-6.5,30.7,24.4,2.3,112
2011-11-10 16:51:26,24.1,-6.8,30.9,19.7,2.3,111
2011-11-10 16:56:26,24.1,-6.4,30.6,14.4,2.3,113
2011-11-10 17:01:26,24.1,-6.6,30.7,9.5,2.3,111
2011-11-10 17:06:26,24.1,-6.6,30.6,5.8,2.3,112
2011-11-10 17:11:26,24.1,-6.4,30.5,3.2,2.3,112
2011-11-10 17:16:26,24.0,-6.1,30.2,1.8,2.3,111
2011-11-10 17:21:26,23.9,-5.3,29.2,1.0,2.3,112
2011-11-10 17:26:27,23.9,-4.7,28.5,0.6,2.4,111
2011-11-10 17:31:27,23.9,-3.7,27.5,0.4,2.5,112
2011-11-10 17:36:27,23.9,-3.3,27.1,0.3,2.5,112
2011-11-10 17:41:27,23.9,-3.5,27.3,0.3,2.4,111
2011-11-10 17:46:27,23.8,-2.9,26.8,0.3,2.3,112
2011-11-10 17:51:27,23.8,-2.1,25.9,0.3,2.3,112
2011-11-10 17:56:27,23.8,-1.8,25.6,0.3,2.3,111
2011-11-10 18:01:27,23.8,-2.0,25.8,0.3,2.3,112
2011-11-10 18:06:27,23.7,-3.0,26.7,0.3,2.3,112
2011-11-10 18:11:27,23.1,-4.3,27.4,0.2,2.3,111
2011-11-10 18:16:27,23.4,-4.9,28.3,0.2,2.3,112
2011-11-10 18:21:27,23.1,-5.6,28.6,0.2,2.3,112
2011-11-10 18:26:27,22.9,-5.7,28.5,0.2,2.3,111
2011-11-10 18:31:27,22.8,-5.4,28.2,0.2,2.3,111
2011-11-10 18:36:27,22.8,-5.0,27.8,0.2,2.3,111
2011-11-10 18:41:27,22.8,-5.1,27.9,0.2,2.3,112
2011-11-10 18:46:27,22.7,-5.4,28.1,0.2,2.3,111
2011-11-10 18:51:27,22.8,-4.2,27.0,0.2,2.3,112
2011-11-10 18:56:27,22.8,-0.7,23.5,0.3,2.3,111
2011-11-10 19:01:27,22.1,3.3,18.8,0.4,2.3,112
2011-11-10 19:06:27,19.6,5.6,14.0,0.3,2.5,111
2011-11-10 19:11:27,18.9,6.3,12.6,0.4,2.3,111
2011-11-10 19:16:27,18.7,7.4,11.3,0.4,2.3,112
2011-11-10 19:21:27,18.7,6.2,12.5,0.4,2.3,112
2011-11-10 19:26:27,18.7,6.5,12.2,0.4,2.3,111
2011-11-10 19:31:27,18.7,8.5,10.2,0.4,2.3,112
2011-11-10 19:36:27,18.8,8.1,10.7,0.4,2.3,111
2011-11-10 19:41:27,18.9,6.3,12.6,0.4,2.3,111
2011-11-10 19:46:27,18.9,5.4,13.5,0.4,2.3,111
2011-11-10 19:51:27,18.9,4.0,14.9,0.5,2.3,112
2011-11-10 19:56:27,18.8,7.6,11.2,0.4,2.3,111
2011-11-10 20:01:27,18.9,8.7,10.2,0.4,2.3,112
2011-11-10 20:06:27,19.0,9.3,9.7,0.4,2.3,111
2011-11-10 20:11:27,19.1,9.2,9.9,0.4,2.3,111
2011-11-10 20:16:27,19.2,8.0,11.2,0.5,2.3,112
2011-11-10 20:21:27,19.2,9.5,9.7,0.5,2.3,111
2011-11-10 20:26:27,19.3,8.3,11.0,0.6,2.3,111
2011-11-10 20:31:27,19.2,4.7,14.5,0.6,2.3,112
2011-11-10 20:36:27,19.1,4.6,14.5,0.6,2.3,112
2011-11-10 20:41:27,19.1,5.9,13.2,0.6,2.3,111
2011-11-10 20:46:27,19.0,4.4,14.6,0.6,2.3,112
2011-11-10 20:51:27,19.1,3.1,16.0,0.6,2.3,111
2011-11-10 20:56:27,19.0,1.5,17.5,0.7,2.3,111
2011-11-10 21:01:27,18.9,4.1,14.7,0.7,2.3,112
2011-11-10 21:06:27,18.9,4.4,14.5,0.7,2.3,111
2011-11-10 21:11:27,18.9,5.1,13.8,0.7,2.3,112
2011-11-10 21:16:27,18.9,4.3,14.6,0.7,2.3,111
2011-11-10 21:21:27,18.9,5.1,13.9,0.7,2.3,111
2011-11-10 21:26:27,19.0,7.3,11.7,0.7,2.3,112
2011-11-10 21:31:27,19.1,6.8,12.3,0.8,2.3,111
2011-11-10 21:36:27,19.1,7.7,11.4,0.8,2.3,112
2011-11-10 21:41:27,19.2,9.4,9.8,0.7,2.3,111
2011-11-10 21:46:27,19.3,9.8,9.5,0.6,2.3,112
2011-11-10 21:51:27,19.3,9.5,9.8,0.7,2.4,112
2011-11-10 21:56:27,19.4,8.8,10.6,0.7,2.4,111
2011-11-10 22:01:27,19.4,8.1,11.3,0.8,2.4,112
2011-11-10 22:06:27,19.4,6.4,13.0,0.8,2.4,111
2011-11-10 22:11:27,19.3,4.7,14.6,1.0,2.4,111
2011-11-10 22:16:27,19.3,5.7,13.6,0.9,2.4,112
2011-11-10 22:21:27,19.3,6.4,12.9,0.8,2.4,111
2011-11-10 22:26:27,19.3,5.1,14.2,0.9,2.4,112
2011-11-10 22:31:27,19.5,1.3,18.2,1.1,2.4,111
2011-11-10 22:36:27,19.3,2.1,17.2,1.1,2.3,112
2011-11-10 22:41:27,19.2,2.3,16.9,1.2,2.3,111
2011-11-10 22:46:27,19.0,5.8,13.3,0.9,2.3,112
2011-11-10 22:51:27,19.1,3.1,15.9,1.1,2.3,111
2011-11-10 22:56:27,19.0,2.2,16.8,1.1,2.3,111
2011-11-10 23:01:27,20.1,-1.1,21.3,1.4,2.4,112
2011-11-10 23:06:27,22.6,-0.0,22.6,1.2,2.3,111
2011-11-10 23:11:27,23.2,-0.7,23.9,1.2,2.3,112
2011-11-10 23:16:27,23.7,-2.3,26.0,1.3,2.3,111
2011-11-10 23:21:27,23.9,-1.6,25.4,1.3,2.3,112
2011-11-10 23:26:27,23.8,2.0,21.8,1.1,2.4,111
2011-11-10 23:31:27,21.6,5.4,16.2,1.0,2.3,112
2011-11-10 23:36:27,20.0,8.4,11.6,0.9,2.3,111
2011-11-10 23:41:27,19.6,7.6,12.0,1.0,2.6,112
2011-11-10 23:46:27,19.5,5.9,13.6,1.1,2.6,111
2011-11-10 23:51:27,19.4,9.0,10.4,0.9,2.4,112
2011-11-10 23:56:27,19.4,9.3,10.2,0.8,2.4,111
